Tracking 19717 objects as of 25-Jun-2019
HD Live streaming from Space Station
objects crossing your sky now

COSMOS 1375 DEB

Track COSMOS 1375 DEB now!
10-day predictions


NORAD ID: 19453
Int'l Code: 1982-055BL
Perigee: 763.7 km
Apogee: 846.3 km
Inclination: 65.8 °
Period: 100.8 minutes
Semi major axis: 7176 km
RCS: 0.0034 m2 (small)
Launch date: June 6, 1982
Source: Commonwealth of Independent States (former USSR) (CIS)
Launch site: PLESETSK MISSILE AND SPACE COMPLEX (PKMTR)

Note: This is SATELLITE DEBRIS
aabbcc
Your satellite tracking list
Your tracking list is empty




NASA's NSSDC Master Catalog

Two Line Element Set (TLE):
1 19453U 82055BL  19174.13970093 +.00000222 +00000-0 +12412-3 0  9995
2 19453 065.8090 064.3207 0057511 359.7696 154.6236 14.28164703606722
Source of the keplerian elements: AFSPC